Wind_Speed
21 22 23 24 25 25 27 28 29 30 31 32 32 33 33 33 34 34 34 34 34 34 35 36 36 37 38 39 40 40 41 42 42 43 43 43 44 44 44 44 44 45 46 46 46 47 47 47 48 48 49 48 48 49 49 51 51 52 53 53 53 54 55 55 56 54 51 52 53 53 53 55 55 55 54 54 54 55 54 51 50 49 48 48 49
24 24 24 24 24 24 25 26 27 29 30 31 31 32 32 33 33 33 33 33 33 34 35 36 37 38 39 40 41 41 42 43 44 45 45 46 46 46 46 47 46 46 47 47 48 49 49 49 49 50 50 50 50 51 51 52 52 53 54 54 55 55 56 57 57 57 54 53 54 55 54 56 57 55 54 54 55 56 55 52 50 50 49 48 48
27 27 27 26 27 27 28 28 29 29 30 30 31 31 32 33 33 33 33 33 34 35 36 37 38 39 40 41 41 42 43 44 45 46 47 48 48 48 49 49 49 48 48 49 49 50 51 51 51 51 52 52 53 53 53 53 54 54 55 56 56 56 57 58 59 59 57 55 55 56 56 57 58 56 55 54 55 57 56 53 50 50 49 48 48
28 29 30 30 30 31 32 32 33 32 32 33 33 33 33 34 34 35 35 35 36 37 38 39 39 40 40 41 41 42 43 45 46 47 48 49 49 50 50 51 51 51 51 50 51 51 52 53 53 53 53 53 54 55 56 56 55 56 56 57 57 57 58 59 60 60 59 57 57 58 58 58 58 57 56 55 56 56 55 53 51 50 49 49 49
28 29 30 31 31 33 35 36 36 36 35 35 35 35 35 36 36 37 37 37 38 40 40 40 40 40 40 40 41 42 43 45 46 48 49 50 50 51 51 52 53 54 53 53 53 53 54 54 54 54 55 55 55 56 57 58 58 58 57 58 58 59 59 59 60 61 61 60 58 57 59 60 59 58 57 56 56 55 55 53 51 50 49 50 50
32 32 32 31 33 37 39 40 40 40 38 38 37 37 38 38 38 38 38 38 40 40 40 39 39 39 39 39 39 40 42 43 45 47 48 50 50 51 52 53 54 55 56 56 55 55 55 55 55 56 56 57 57 57 57 58 59 60 60 59 59 60 60 60 61 61 61 61 59 57 59 60 60 59 58 57 57 56 55 54 52 50 49 50 50
38 39 38 37 38 41 42 42 43 43 42 41 40 40 40 40 40 39 39 39 40 39 39 38 38 38 38 37 36 37 39 42 44 45 47 48 49 50 51 52 53 55 57 57 58 57 57 57 57 57 58 58 59 59 59 59 59 60 61 61 61 61 61 61 61 62 62 62 60 59 59 59 60 60 59 59 59 58 56 54 52 50 48 49 49
43 44 44 42 40 40 41 42 43 45 45 44 43 42 42 41 40 40 40 40 40 39 38 38 37 37 36 35 34 36 38 40 42 43 44 46 47 48 49 50 52 54 56 57 59 59 60 60 59 58 58 59 60 60 60 61 61 61 61 62 63 62 62 62 62 62 62 62 61 59 59 59 59 60 59 59 60 58 55 53 52 50 48 48 49
47 47 47 45 42 41 44 45 44 44 46 46 46 44 43 42 42 41 41 40 40 40 39 38 37 36 36 35 35 37 38 40 41 42 43 45 46 47 48 49 51 52 54 55 57 59 60 61 61 61 60 60 61 61 61 61 62 62 62 62 63 63 63 63 62 63 63 63 62 60 59 58 58 59 60 59 59 57 55 54 54 51 47 47 48
52 51 50 49 46 45 48 49 47 46 47 49 49 47 45 44 43 42 41 41 41 40 39 39 38 37 36 36 37 39 40 42 43 44 45 46 47 48 49 50 51 52 53 54 56 57 59 60 61 62 62 62 62 62 62 62 62 62 62 63 63 64 64 64 63 63 64 63 62 60 59 58 58 59 59 59 58 57 56 55 54 51 48 47 47
55 53 51 51 48 47 49 51 50 50 50 51 52 50 47 45 44 42 41 41 41 41 40 40 38 38 38 38 39 40 42 44 45 47 48 49 50 50 51 52 53 53 54 54 55 56 58 59 60 61 61 62 62 63 63 63 63 63 63 63 64 64 64 64 64 64 64 64 63 61 60 59 58 57 57 58 58 57 56 55 53 52 50 48 47
56 55 53 53 51 50 51 53 52 52 53 54 54 52 48 46 44 43 42 42 42 41 41 40 39 39 40 40 41 42 43 45 46 47 48 50 51 53 54 55 55 55 56 56 56 57 58 58 59 60 60 61 61 62 63 64 64 64 64 64 64 64 65 65 65 64 65 64 64 62 61 59 57 56 56 57 57 56 55 55 54 53 52 50 48
56 56 55 54 53 51 52 54 53 53 55 55 52 51 49 46 44 43 42 42 42 42 42 42 41 41 41 42 42 43 44 45 46 47 48 50 52 54 56 57 58 58 58 58 58 58 59 59 59 60 60 61 61 61 62 63 64 64 65 65 65 64 65 65 66 65 65 65 64 63 62 60 58 56 56 56 56 55 54 55 55 53 52 51 49
59 58 56 55 54 53 53 54 55 55 56 55 52 50 48 46 44 43 43 42 43 43 43 43 43 43 43 43 44 44 46 47 49 50 51 53 54 56 58 59 60 61 60 60 60 60 60 60 60 60 60 60 61 61 62 62 63 64 65 65 65 65 65 65 66 66 66 66 65 64 62 62 59 56 55 56 56 55 54 54 53 52 51 51 51
64 63 61 58 57 54 52 53 55 56 57 56 53 49 46 45 44 44 43 44 44 45 45 45 45 44 45 45 46 46 48 50 51 53 55 56 58 60 61 62 63 63 62 62 62 62 61 61 61 60 60 60 60 61 62 63 63 64 64 65 65 65 65 65 66 67 67 66 66 65 63 62 61 58 56 56 55 54 54 54 54 53 53 52 51
65 64 63 60 58 55 53 53 55 57 56 56 53 47 44 44 44 44 44 45 46 47 47 46 46 46 47 47 48 49 50 52 54 56 58 60 62 64 65 65 64 63 62 62 62 61 61 61 60 60 59 58 59 61 62 63 64 64 64 64 65 65 65 65 66 67 67 67 66 65 63 62 62 60 58 57 56 55 55 55 55 55 55 54 51
61 61 60 59 57 55 53 53 56 58 59 58 53 45 41 42 44 44 46 47 47 47 47 47 47 48 48 49 50 50 52 54 56 59 61 63 65 66 66 65 63 61 60 59 59 58 57 58 58 58 58 57 58 59 61 63 64 64 64 64 65 65 64 65 66 66 67 67 66 65 64 63 63 62 60 59 57 56 57 57 55 54 55 55 53
58 58 57 57 57 55 53 55 57 57 58 58 51 42 39 42 43 45 46 47 47 47 47 48 48 48 49 50 51 52 53 56 59 62 64 65 66 66 64 62 60 58 56 55 54 53 54 55 56 57 57 57 58 59 60 62 64 65 65 65 65 64 64 65 66 65 66 67 67 66 65 64 63 63 62 60 59 58 58 57 55 53 54 54 53
57 55 55 55 54 54 54 56 57 56 57 54 46 39 39 42 43 44 45 46 46 47 48 48 48 49 50 50 51 53 56 59 62 64 65 66 65 63 61 59 56 54 53 52 52 53 54 55 56 57 58 59 60 60 61 62 63 64 65 65 65 64 64 65 65 65 66 66 67 67 66 64 64 64 62 61 60 59 58 56 55 54 53 53 53
52 51 50 50 51 52 55 56 56 55 54 48 41 37 40 41 42 44 44 45 47 48 48 49 48 49 50 51 53 56 58 61 63 64 64 63 61 60 58 56 54 52 51 52 53 54 55 56 56 57 57 58 58 60 60 61 62 62 62 64 64 63 65 65 65 65 66 66 66 67 67 65 64 63 62 61 61 60 58 56 55 54 52 52 52
45 44 45 46 48 51 53 55 55 54 52 47 44 43 41 40 41 43 44 46 47 47 48 48 47 48 50 52 55 59 61 63 63 62 61 59 58 57 55 54 53 53 53 53 54 54 53 53 52 53 55 56 58 60 61 61 60 60 59 60 61 62 64 65 66 67 67 66 66 67 67 65 63 62 62 62 61 60 58 55 55 54 52 51 51
39 39 40 43 46 49 52 53 55 55 52 49 47 44 41 40 41 43 44 45 45 45 46 46 46 48 51 55 58 60 61 61 60 59 58 56 55 54 54 55 56 56 55 53 51 49 48 49 51 53 56 59 62 63 62 61 59 57 56 57 58 60 62 63 65 67 67 67 66 66 66 64 62 61 61 61 61 60 58 55 54 54 52 51 51
36 37 38 40 42 44 46 47 48 48 46 44 42 40 39 39 40 40 40 41 42 43 44 45 47 50 53 56 58 58 58 58 57 56 54 53 53 55 56 58 59 58 55 50 47 46 48 50 53 55 57 61 63 64 62 60 59 57 56 56 56 57 60 61 63 66 68 67 67 65 64 62 61 59 59 60 60 60 58 56 55 54 53 52 52
35 36 38 38 37 37 37 37 38 37 37 36 36 36 36 35 35 36 37 38 40 42 44 46 49 51 53 54 55 55 56 55 54 52 52 53 55 57 59 60 60 57 52 47 46 48 50 51 50 51 54 56 56 56 55 54 54 54 55 55 55 55 57 59 61 64 67 67 66 64 61 60 59 58 57 58 60 60 59 57 55 54 53 53 52
36 36 37 36 35 33 30 30 31 31 30 31 30 30 30 31 32 34 36 38 40 42 45 47 49 51 52 52 52 52 51 50 50 51 53 56 58 59 59 58 56 53 50 49 50 51 49 46 45 46 47 45 44 44 45 45 46 48 49 51 52 53 54 55 58 61 63 64 64 63 60 58 58 57 57 58 60 61 59 57 55 54 53 53 52
35 34 34 32 30 27 26 26 27 27 26 26 26 26 28 29 31 33 35 38 41 43 45 47 48 49 49 48 47 46 46 48 50 53 55 57 57 57 56 54 52 50 50 50 51 48 44 41 42 42 41 40 41 41 41 42 43 44 45 46 48 50 52 53 55 56 58 60 62 62 60 58 57 57 57 58 59 59 58 56 54 53 52 52 51
34 34 34 32 28 26 26 26 25 23 22 22 23 25 26 28 30 33 36 39 41 43 45 45 45 45 44 43 43 43 45 48 51 52 54 54 53 52 51 50 49 49 50 49 46 41 38 37 37 37 37 38 39 40 41 42 42 42 43 43 44 46 49 51 53 54 55 56 59 61 61 59 57 57 57 57 57 57 56 55 53 52 51 51 50
33 33 33 32 29 26 23 22 20 19 18 20 22 23 24 27 31 34 37 39 41 42 42 41 41 40 40 40 41 43 46 48 50 52 52 50 48 47 47 47 47 47 47 44 39 35 33 33 33 35 37 38 39 39 40 41 41 41 41 42 42 43 45 47 50 52 53 54 56 59 60 60 58 56 56 56 56 55 55 54 52 50 49 49 49
27 28 28 26 24 21 18 17 16 16 17 19 21 22 26 30 33 35 37 38 38 38 37 37 37 38 39 40 42 44 46 48 49 49 47 45 44 44 44 44 44 43 41 38 34 33 33 33 34 35 37 38 39 39 40 40 40 40 40 40 41 42 44 45 46 47 50 52 54 56 58 59 58 56 55 55 55 54 53 52 51 49 48 48 48
23 23 21 19 17 15 14 14 14 15 18 20 21 25 28 31 32 33 34 35 35 35 35 36 37 37 39 41 44 46 47 47 46 43 41 40 40 41 40 39 37 35 34 33 33 34 34 35 35 35 35 36 35 35 37 38 39 40 40 40 40 40 42 44 44 44 46 48 50 52 54 56 56 55 54 53 53 52 51 50 50 48 46 46 47
20 18 16 15 14 13 13 13 14 16 19 21 24 27 29 29 30 30 31 32 33 34 35 35 36 38 40 43 45 46 47 46 43 39 37 36 37 37 36 33 30 30 31 32 33 34 35 35 34 34 33 33 33 33 34 35 36 36 36 36 36 36 38 40 40 40 41 43 45 48 50 52 52 53 52 51 50 49 49 49 48 47 45 45 46
15 14 14 13 12 12 12 13 15 18 21 24 25 26 27 27 28 29 30 32 33 33 34 35 36 39 42 44 45 46 45 43 40 36 34 34 34 33 31 27 26 28 30 31 31 32 32 31 31 31 31 33 34 34 32 31 31 30 30 30 30 30 31 32 34 35 36 38 40 42 45 47 48 49 49 49 48 47 47 47 46 44 44 44 44
13 13 12 11 10 11 12 14 17 20 23 24 24 24 25 26 28 29 30 31 32 33 34 35 38 40 42 44 46 46 45 41 37 34 33 32 30 28 25 24 25 27 27 27 27 28 28 28 29 30 32 33 34 32 28 26 24 23 23 23 24 25 26 27 28 29 31 33 36 39 42 44 45 46 46 47 46 45 45 44 43 43 43 43 44
11 10 9 9 10 11 13 15 18 21 22 22 22 23 24 25 27 28 29 31 32 34 35 37 39 41 42 44 46 46 44 39 34 32 31 30 26 23 22 22 23 24 24 24 26 27 27 27 27 27 27 27 26 23 20 18 17 17 18 19 20 22 23 24 25 27 29 32 35 38 40 42 42 42 43 44 44 43 43 43 43 43 43 44 44
8 8 9 10 11 13 14 17 19 20 20 20 21 22 23 24 26 28 30 31 33 34 35 37 39 40 41 44 45 45 42 36 32 31 30 27 23 19 19 20 21 21 20 21 22 22 21 20 17 15 15 16 16 13 12 13 13 14 16 18 19 20 21 22 24 26 29 31 34 36 37 38 39 39 40 40 41 41 42 43 43 42 43 43 43
8 9 11 12 13 14 15 17 18 18 18 20 21 22 23 25 27 29 30 31 32 34 35 36 37 39 40 42 44 43 39 35 31 29 27 24 20 17 16 17 19 19 18 17 15 13 11 10 8 6 9 12 11 9 11 11 11 12 14 15 17 18 20 22 23 25 27 29 31 32 34 35 36 37 37 38 39 38 39 40 41 41 41 41 41
10 11 12 13 14 15 16 16 16 16 17 19 20 22 24 26 27 28 29 31 32 33 34 34 35 37 39 41 42 40 36 33 32 28 23 18 15 13 13 15 17 17 14 11 8 6 6 7 7 6 8 10 8 10 11 9 8 8 8 10 12 16 19 22 23 24 26 28 29 31 32 33 34 35 36 36 36 35 36 38 39 39 39 38 37
11 12 12 14 15 15 15 14 13 14 16 18 20 22 24 25 27 28 29 29 29 30 31 32 33 35 38 40 39 36 32 32 32 28 22 15 11 10 12 14 14 12 9 7 6 5 5 8 10 8 6 6 6 12 11 6 5 4 4 6 9 12 16 19 21 22 25 27 29 30 31 32 33 32 33 34 34 34 36 38 38 37 36 35 33
12 12 13 15 15 15 13 12 11 13 15 18 20 22 23 25 26 27 28 28 28 28 30 32 33 35 38 39 37 33 30 29 28 25 20 16 12 11 12 11 8 7 6 5 6 5 4 6 7 6 5 6 5 11 11 6 3 3 2 4 7 10 12 15 18 21 23 25 26 28 29 30 30 30 30 32 33 35 36 36 35 33 33 32 31
13 14 14 14 14 14 12 10 11 13 15 17 19 21 22 24 26 27 27 28 28 28 30 32 34 36 37 37 35 31 29 28 25 21 17 15 13 12 11 10 7 5 4 3 4 5 5 4 5 6 6 7 5 9 11 8 5 4 3 3 4 7 11 15 18 20 23 24 26 27 28 29 31 33 33 34 35 35 34 32 31 31 30 30 30
14 14 14 13 13 12 10 10 11 12 15 17 19 20 21 23 24 26 27 28 28 28 30 32 33 35 37 36 33 30 29 28 26 22 17 15 13 12 12 11 9 6 6 6 5 4 5 5 5 5 5 4 3 6 11 11 8 6 6 6 4 5 11 16 18 21 24 27 28 29 29 31 33 34 35 35 34 33 31 30 30 29 29 28 29
14 14 13 12 12 11 9 9 11 13 15 17 18 19 21 22 24 25 26 27 28 29 29 31 32 34 36 35 32 30 29 29 28 26 21 16 13 12 12 11 10 8 8 9 9 7 6 6 5 3 3 3 2 3 7 11 10 7 8 9 8 9 12 15 18 21 25 30 33 33 33 34 34 34 34 34 33 32 30 30 30 29 28 27 27
15 13 12 12 11 9 9 10 12 14 16 17 18 18 20 22 23 25 26 27 28 29 29 30 31 33 34 35 33 30 29 29 28 28 25 18 12 10 11 11 10 7 5 7 10 10 9 7 4 2 4 5 4 2 3 6 9 10 10 10 11 13 15 16 18 20 24 29 33 34 34 35 36 36 35 34 33 32 31 31 30 28 27 25 23
14 13 12 11 10 9 9 11 13 14 16 17 17 17 18 20 22 24 26 27 28 29 29 29 30 31 32 34 34 31 29 28 27 27 27 21 12 8 9 10 9 6 3 3 6 9 11 10 8 5 4 5 6 5 3 3 6 9 11 12 13 15 19 21 21 22 24 26 28 30 31 33 35 35 35 34 33 33 32 31 29 28 25 23 21
14 12 11 11 10 10 11 12 14 15 16 17 18 17 17 19 21 22 24 26 27 28 28 29 29 30 30 32 34 31 28 27 26 26 26 22 14 8 7 9 8 6 3 1 2 6 10 12 12 11 8 7 8 9 10 9 9 9 11 15 16 17 20 22 23 23 25 26 28 29 31 31 32 33 34 34 34 32 31 29 28 26 23 22 22
12 12 11 11 11 11 12 13 15 16 17 18 19 18 18 19 20 21 22 24 25 27 28 28 29 29 29 31 32 32 29 26 24 24 25 23 18 12 9 8 7 5 2 3 4 2 5 10 13 15 13 10 8 9 12 14 15 14 13 15 17 19 21 23 23 25 26 27 28 30 31 30 31 32 33 33 31 30 29 28 27 25 23 23 26
12 11 11 11 11 12 13 14 15 17 18 19 20 20 19 20 20 21 21 22 23 25 26 27 28 28 29 29 31 32 30 27 24 22 23 23 20 15 11 8 7 5 1 2 4 4 2 6 10 12 12 11 11 11 11 14 16 15 15 15 17 20 22 24 25 26 27 27 28 30 30 31 31 32 32 31 30 29 28 28 27 26 25 25 28
12 12 12 12 12 12 13 14 15 17 18 20 21 21 20 20 21 21 21 21 22 23 25 26 26 27 28 28 29 30 30 29 26 23 22 22 22 18 14 10 7 4 2 3 2 3 2 6 11 13 13 13 13 11 9 12 16 16 15 16 17 19 22 24 25 27 28 28 28 29 30 30 31 30 29 29 28 28 28 28 28 27 27 27 28
13 12 12 12 12 12 13 14 16 17 18 20 21 22 21 21 21 22 21 21 21 21 23 24 25 26 27 27 28 29 30 30 28 25 22 21 21 21 18 14 9 4 3 4 2 1 2 5 10 13 13 12 11 9 8 12 18 18 16 15 15 17 21 24 25 26 27 27 27 27 28 28 28 28 27 28 28 28 29 29 28 28 29 29 28
13 13 12 12 12 13 14 15 16 18 19 20 21 22 22 21 21 21 21 20 20 20 21 22 24 25 25 27 27 28 28 29 29 27 24 21 20 21 21 19 14 8 3 5 7 6 4 4 7 10 12 12 11 9 8 11 17 19 17 14 13 15 18 21 24 26 27 27 26 27 28 28 28 27 27 28 28 28 28 27 26 27 29 29 30
14 13 13 13 13 14 15 16 17 18 19 20 21 21 21 21 20 20 20 19 19 19 19 20 22 23 24 25 26 27 27 28 29 29 27 24 21 20 21 21 20 16 10 6 4 6 7 8 8 9 10 11 12 10 7 8 13 17 17 14 13 14 15 17 20 25 27 26 25 26 27 28 27 27 27 27 27 25 24 24 24 26 29 29 29
Wind_Direction
271 265 263 262 263 263 264 265 266 266 267 266 266 266 266 267 267 268 269 269 270 271 271 272 272 271 271 270 270 270 269 269 267 266 266 265 264 262 261 260 260 260 260 260 260 261 261 261 261 261 261 260 260 259 259 259 260 260 260 261 261 262 262 262 261 261 260 260 260 260 260 260 259 259 258 258 258 257 256 255 255 256 257 258 260
274 271 268 265 264 264 265 267 267 267 267 267 266 266 266 267 268 269 270 272 274 275 276 276 276 275 275 274 273 273 273 272 271 270 269 268 267 265 264 262 261 261 260 260 260 260 260 260 261 261 262 262 261 261 260 260 260 260 260 260 260 261 261 261 261 260 259 258 259 260 260 260 260 260 259 259 259 258 257 256 255 256 256 257 259
275 273 271 269 268 269 270 270 270 269 268 267 267 267 267 267 268 269 272 275 278 280 280 280 279 278 278 277 277 276 275 274 273 272 271 270 269 268 267 266 264 263 262 261 261 261 260 260 259 259 260 261 262 262 261 260 260 260 260 260 259 259 260 261 261 260 259 258 258 259 259 259 260 260 259 259 258 259 259 258 256 255 255 256 257
273 273 273 273 273 274 275 274 272 270 269 267 267 267 267 268 268 270 273 278 281 283 283 282 281 280 279 279 279 278 277 276 274 273 272 271 271 270 269 268 267 266 264 263 262 262 262 261 260 259 259 259 260 261 261 261 260 259 259 259 259 259 259 259 260 261 260 259 258 258 258 259 259 259 259 259 258 259 259 258 257 255 254 254 254
270 273 272 272 274 276 278 277 273 270 268 267 267 267 268 269 270 271 274 279 282 283 283 282 281 281 281 281 281 280 279 278 277 275 274 273 272 271 271 270 269 268 266 265 264 263 262 262 261 261 260 259 258 258 259 260 260 260 259 258 259 259 259 258 259 260 260 259 258 258 258 259 259 259 258 258 258 258 258 258 257 254 252 252 252
268 271 270 270 273 276 279 279 275 270 267 266 266 266 268 269 271 272 275 279 281 281 281 280 280 281 281 281 281 282 281 280 279 278 277 276 275 274 273 272 271 270 268 267 265 264 263 262 262 261 261 260 259 257 257 257 258 259 259 258 257 258 258 258 258 258 259 259 258 258 258 258 259 259 259 258 257 257 257 257 256 253 251 250 251
266 267 268 270 272 274 276 278 275 271 267 266 266 266 267 268 270 272 275 278 279 278 278 278 280 280 280 280 281 281 281 281 281 281 281 280 280 279 277 275 274 272 271 269 268 266 264 263 262 261 261 260 259 259 257 256 256 256 258 258 257 257 257 258 258 258 258 258 257 257 257 257 258 258 259 259 258 258 257 256 255 253 251 250 249
265 265 267 270 271 272 274 276 275 271 269 268 267 265 265 266 268 271 274 275 275 275 275 277 278 278 278 277 278 279 281 282 283 284 284 284 284 283 281 280 278 276 274 273 271 269 267 265 263 262 261 260 259 259 258 257 256 255 255 256 257 257 256 256 257 257 257 257 257 257 256 256 257 257 257 258 259 259 258 257 256 254 253 252 250
268 267 268 268 268 270 272 275 275 273 272 271 268 264 263 265 266 269 271 272 272 272 273 275 275 275 275 274 274 276 279 282 284 286 287 287 287 285 284 282 281 279 277 275 274 272 270 268 266 264 262 261 260 259 258 258 257 256 254 254 255 256 256 256 256 256 257 257 257 257 256 255 256 256 256 256 257 258 258 257 257 255 253 253 253
267 267 268 268 267 267 269 271 273 274 274 273 269 264 263 264 265 267 267 268 269 270 272 273 273 273 274 273 272 274 278 281 284 286 287 288 289 288 286 284 282 280 278 276 275 274 272 270 268 266 264 262 261 259 259 258 258 257 255 254 254 254 255 255 255 255 256 256 256 256 256 255 255 255 256 256 256 256 256 257 257 257 254 252 252
265 264 265 266 266 266 267 270 272 274 275 275 269 263 262 263 263 264 264 265 267 268 270 271 272 273 273 272 270 272 277 280 283 285 287 288 288 288 288 286 283 281 279 277 275 274 273 272 270 268 266 264 262 261 259 258 257 257 256 255 254 253 253 254 254 255 255 255 256 256 255 255 255 254 255 255 255 255 255 256 256 256 254 251 249
265 264 264 264 265 265 266 268 270 271 273 274 269 261 259 261 261 261 262 263 265 267 269 270 271 272 273 271 270 272 276 280 282 285 287 289 289 289 289 288 285 283 280 278 276 274 272 271 270 269 268 266 264 262 260 258 257 257 256 255 254 253 253 252 253 253 254 254 255 255 255 255 254 254 254 254 254 253 253 254 254 253 253 252 250
263 264 265 264 264 264 264 265 268 269 271 271 266 260 258 259 259 259 260 261 264 266 268 269 269 271 272 271 270 272 277 280 282 285 288 290 291 291 291 290 288 285 282 279 277 275 273 272 270 269 268 267 265 263 261 259 257 256 255 255 255 254 253 252 252 252 252 252 253 253 254 254 254 254 254 254 253 253 251 251 252 253 254 253 249
258 259 260 261 262 262 263 265 266 268 270 268 263 259 258 257 257 258 258 260 262 265 267 267 267 269 271 271 271 273 277 280 283 286 288 290 291 292 292 291 289 286 283 280 278 275 274 272 271 269 268 267 266 264 263 261 259 257 255 254 254 254 253 252 251 251 251 251 251 251 252 253 253 252 252 253 253 253 251 250 249 250 251 252 249
255 255 256 258 260 261 262 264 265 267 268 265 260 257 256 255 256 257 258 259 262 263 265 266 267 268 270 271 272 274 277 281 284 286 288 289 290 291 292 292 290 287 284 281 279 277 274 272 270 268 267 265 265 264 263 262 260 258 256 254 253 253 252 252 252 251 250 249 249 249 249 250 251 251 250 251 251 251 251 249 247 245 245 248 249
255 255 255 256 257 258 259 260 262 264 265 262 258 254 254 254 256 257 258 260 261 263 265 266 267 269 271 272 273 275 278 281 284 286 287 288 289 290 291 291 288 285 282 280 279 277 275 272 270 268 266 264 263 263 262 261 260 259 257 256 254 252 252 252 252 251 250 249 248 248 248 248 249 249 249 249 249 249 249 248 247 244 243 244 248
256 256 256 255 255 255 256 258 259 260 262 262 257 252 252 256 257 258 259 261 262 264 266 268 269 271 272 273 275 276 279 282 284 286 287 287 288 289 289 288 285 282 280 279 278 276 275 273 272 270 268 266 265 263 262 261 260 259 257 256 254 253 252 252 252 251 250 250 248 247 247 246 246 247 247 247 247 247 247 247 247 246 244 244 245
259 258 257 256 255 254 254 257 259 258 260 260 253 249 255 259 258 258 260 262 264 266 267 269 271 273 274 274 276 278 280 283 285 286 286 287 288 288 287 284 282 281 280 278 277 276 275 274 273 272 271 269 267 265 263 261 260 259 258 256 255 253 251 251 251 251 250 250 248 247 246 245 245 245 245 246 246 246 247 248 247 246 245 244 243
257 257 257 256 255 253 253 255 257 259 261 256 249 252 262 263 260 260 262 264 266 268 269 271 274 275 276 276 278 280 283 284 285 286 286 287 287 287 285 283 282 280 279 278 277 277 276 275 273 272 270 269 267 265 264 262 261 259 258 256 255 253 252 250 250 250 250 249 248 247 245 244 243 243 243 244 245 245 246 246 246 245 244 244 243
255 255 254 253 251 250 250 251 254 259 260 254 253 263 269 265 263 264 265 266 268 270 272 273 275 277 278 279 281 283 284 284 285 286 286 287 287 286 285 284 282 280 279 279 279 278 277 275 273 271 269 268 267 266 265 264 262 260 259 257 256 253 252 250 249 248 248 248 248 247 245 244 242 242 242 242 243 244 244 244 245 245 244 243 243
253 251 250 249 247 245 247 248 251 255 256 256 263 270 268 265 265 266 267 269 271 272 274 275 276 278 280 281 283 283 284 285 285 286 287 288 288 287 285 284 283 282 281 281 281 278 275 272 270 268 267 267 267 268 267 266 265 262 260 258 256 253 251 249 248 247 246 246 247 246 246 244 243 242 241 241 241 242 243 243 243 243 243 243 243
249 247 246 245 243 244 248 250 250 252 255 259 264 265 263 264 268 270 272 273 273 274 276 277 279 280 281 282 283 284 285 286 287 288 288 288 288 287 286 286 286 285 284 283 279 275 271 269 268 267 267 267 267 267 267 267 266 264 261 258 255 252 250 248 247 246 245 244 244 245 245 245 243 242 241 241 241 241 241 242 241 241 241 241 242
242 242 242 241 241 244 249 249 248 250 253 256 258 260 264 268 272 273 275 275 275 277 278 279 281 281 282 283 284 286 287 288 289 289 289 289 289 289 288 288 288 287 285 281 276 273 271 271 271 269 267 266 266 267 267 267 265 263 260 258 255 251 249 247 245 244 244 243 243 244 244 245 244 242 241 241 240 240 240 240 240 239 239 239 239
236 237 238 240 245 250 252 250 247 248 250 253 256 262 267 270 272 274 276 277 278 280 281 281 282 282 283 285 287 288 289 289 290 291 290 290 290 289 289 288 288 286 283 279 277 277 277 277 275 271 267 266 266 266 266 266 264 261 259 256 254 251 249 246 244 243 243 242 242 242 243 243 243 242 241 240 240 239 238 238 238 237 236 237 237
233 234 236 241 246 249 250 249 249 250 252 256 261 265 268 272 275 277 279 281 282 283 283 283 283 284 286 288 288 289 290 290 291 291 291 291 290 289 288 288 286 284 282 281 281 282 282 279 273 268 267 266 265 264 264 264 263 261 258 255 252 250 249 247 245 244 243 242 241 241 241 241 241 240 239 239 239 238 237 236 237 237 236 236 236
229 231 234 238 241 243 246 251 254 256 258 262 266 271 274 278 280 282 283 284 284 284 285 285 286 288 289 289 290 291 291 292 292 292 292 292 291 290 288 286 284 283 283 284 284 285 282 276 270 268 268 267 264 262 261 262 262 261 259 255 252 249 248 246 245 244 243 241 240 240 239 239 238 238 237 237 238 238 237 236 236 236 236 235 235
228 231 233 239 245 249 252 255 258 260 263 267 272 276 279 282 284 285 286 286 286 287 287 288 289 290 290 291 292 293 293 294 295 295 294 293 291 289 287 285 284 284 285 286 286 284 278 273 270 270 270 269 267 263 260 260 261 261 259 258 255 251 248 245 244 242 240 238 237 237 237 237 236 236 236 236 236 237 236 236 235 235 235 234 233
225 229 234 241 247 250 251 253 256 261 266 272 276 280 284 286 287 287 287 288 288 289 290 290 291 291 292 293 294 295 297 298 299 298 296 294 291 288 286 285 285 285 285 285 284 279 274 271 271 271 272 272 271 268 264 261 261 261 259 258 256 254 251 248 245 242 240 237 234 233 234 234 234 234 234 234 235 235 235 235 234 234 233 232 232
222 227 232 237 241 243 246 252 258 265 272 276 281 285 288 288 289 289 290 290 291 291 292 292 292 293 295 296 298 300 301 302 300 298 295 292 289 287 286 286 285 284 284 282 279 275 273 272 272 273 274 274 273 269 266 263 260 259 258 257 255 254 252 249 246 243 240 237 234 231 231 231 231 232 232 232 233 233 233 233 233 233 232 230 229
219 221 224 227 232 238 245 254 262 271 277 281 285 288 289 289 291 292 293 293 292 292 292 293 294 296 298 301 304 305 306 304 301 298 295 292 290 289 288 287 285 283 284 283 280 277 276 274 274 275 275 274 274 271 267 263 259 257 256 256 254 252 249 247 245 242 238 235 232 229 228 227 228 228 229 230 230 230 231 232 232 232 230 229 229
210 211 214 222 231 239 249 260 269 277 281 283 286 288 291 293 295 295 295 294 293 293 293 295 297 300 303 305 308 309 309 307 304 301 299 296 294 293 291 288 286 285 285 284 282 280 278 276 276 275 274 273 274 274 270 265 260 257 256 255 253 250 247 246 245 242 238 233 230 227 225 225 225 225 226 227 227 227 228 229 231 230 228 228 229
207 208 214 224 236 247 258 270 276 279 281 284 287 292 295 298 299 298 296 294 294 295 297 299 302 304 306 309 311 312 311 310 308 306 304 300 297 294 290 287 287 289 288 286 284 283 281 279 276 274 274 274 275 276 274 268 262 258 254 251 249 247 246 244 241 238 233 228 224 222 221 221 222 222 222 221 221 222 224 227 229 229 228 228 229
212 217 224 234 245 258 268 273 276 278 282 287 292 297 300 301 301 301 299 299 299 301 303 305 306 307 309 312 314 314 314 313 312 310 307 303 298 293 288 286 289 293 293 291 288 286 284 281 277 274 273 273 274 276 273 265 257 252 248 246 245 244 242 238 233 229 225 221 218 216 215 216 217 217 217 216 216 217 220 223 225 226 226 226 227
222 231 242 249 255 263 269 272 275 279 286 293 298 301 303 306 307 307 307 307 307 307 308 308 308 310 313 315 317 317 316 316 316 315 311 306 301 294 288 287 292 297 298 294 290 288 286 283 279 275 272 272 274 274 266 253 245 241 240 242 243 242 238 233 225 219 215 212 211 210 210 211 211 212 212 211 211 212 214 217 220 221 222 223 226
237 250 255 256 258 263 269 274 278 284 293 299 302 306 310 313 315 315 314 312 311 310 310 310 311 313 316 318 319 319 319 320 320 319 315 309 303 294 288 289 295 301 302 298 294 292 290 285 278 274 277 280 278 266 246 233 232 238 243 245 243 239 234 229 221 214 210 207 206 205 205 206 206 206 206 205 206 208 212 215 218 220 222 224 226
247 251 252 253 258 265 271 277 283 291 298 304 309 314 319 320 319 319 318 316 315 314 313 313 314 316 319 322 323 323 322 323 323 322 317 310 301 290 286 293 300 305 307 306 303 300 296 288 278 275 290 294 279 242 222 225 235 244 248 246 242 235 228 222 217 212 208 205 203 202 200 200 199 199 199 200 201 204 209 214 218 220 221 223 226
248 249 250 254 260 267 273 279 288 297 304 311 318 323 324 322 322 322 321 320 318 316 315 316 318 320 323 326 327 326 325 325 326 326 322 312 297 284 288 298 302 306 313 317 312 305 309 314 307 298 304 304 272 225 215 227 239 244 243 237 232 229 223 216 210 205 203 202 200 198 196 195 195 195 195 195 197 201 206 212 217 219 221 223 227
248 249 254 259 263 269 275 282 293 304 314 322 326 326 324 324 324 324 323 321 320 319 319 320 321 323 326 329 330 329 327 328 329 329 327 321 309 299 301 305 304 308 322 330 313 302 322 328 315 306 320 319 254 217 214 229 241 240 242 229 218 215 215 211 204 197 195 195 194 192 192 191 189 189 190 192 195 199 206 212 215 218 220 224 227
248 253 258 263 267 271 278 288 303 317 326 329 327 325 324 325 325 325 325 326 326 326 325 324 324 327 330 332 333 331 328 329 331 329 322 319 321 318 314 314 311 309 326 332 313 299 315 321 303 296 330 340 257 219 216 225 243 255 266 237 213 202 200 201 197 191 187 187 186 185 184 182 179 179 186 193 197 202 207 212 214 217 220 224 227
249 253 257 262 267 272 280 295 313 327 331 328 325 324 325 325 326 328 330 331 332 332 330 329 329 331 333 335 335 333 329 331 336 333 320 313 317 321 321 323 317 292 279 295 298 293 295 290 264 263 304 330 295 232 219 218 230 242 234 214 205 195 188 187 188 187 183 179 176 175 175 174 176 181 189 194 198 203 207 210 212 216 220 224 227
242 247 252 257 263 269 281 300 316 325 326 324 323 324 324 325 328 331 333 334 335 334 334 333 332 334 336 338 339 336 332 334 340 341 330 314 312 319 328 331 323 294 258 243 248 268 279 266 244 250 276 304 292 225 212 210 216 214 190 177 175 178 176 176 178 180 178 173 169 170 174 178 183 188 192 195 199 203 206 208 211 216 220 224 227
237 242 247 252 259 266 282 302 312 317 319 320 322 323 324 327 331 333 334 336 337 337 337 336 336 337 340 342 342 339 337 339 343 346 340 326 313 315 325 328 322 303 270 246 236 237 249 256 255 249 232 204 156 156 187 201 205 190 174 177 183 178 170 166 168 173 174 171 169 173 179 184 187 190 193 196 201 204 206 209 212 215 219 224 230
234 239 245 251 259 269 284 297 303 309 314 318 320 323 326 329 332 334 336 337 338 338 339 340 340 342 343 345 345 343 342 342 345 347 346 340 323 311 316 321 319 312 285 252 234 227 230 236 234 202 189 197 193 138 142 185 195 191 189 192 191 185 178 170 165 168 172 173 174 178 182 186 190 192 193 196 201 203 206 209 212 215 221 227 231
233 238 246 252 260 271 282 290 298 305 311 315 318 322 326 330 332 334 336 336 337 339 341 342 343 345 346 348 348 347 346 346 346 347 350 349 337 313 311 319 324 330 320 263 235 226 223 218 205 192 200 216 219 222 231 223 205 200 201 200 192 185 182 177 172 170 172 176 180 183 186 188 191 192 194 197 202 204 207 211 214 218 224 228 228
233 239 247 255 265 275 282 289 298 304 307 312 316 320 325 329 331 332 334 335 337 339 341 343 345 346 348 352 352 350 350 351 349 349 352 354 349 332 320 322 329 339 356 40 214 224 222 212 201 198 209 227 228 227 232 238 240 231 215 203 195 188 183 179 178 177 177 181 186 190 191 192 194 195 197 201 204 206 209 213 216 220 225 226 220
242 248 254 261 270 279 285 290 297 301 304 309 315 319 323 326 327 327 329 333 336 339 341 344 346 347 349 354 356 354 353 354 353 351 354 357 355 346 332 325 327 331 357 78 84 121 205 209 207 210 217 225 222 214 215 223 233 239 229 211 200 194 189 186 186 186 186 188 191 194 195 196 197 199 201 204 207 208 211 214 216 219 223 222 215
246 251 256 261 268 277 284 290 296 300 304 308 313 316 319 322 323 324 326 330 334 338 340 343 347 348 349 354 358 359 357 357 356 355 356 360 0 353 339 328 324 321 307 106 79 68 111 179 191 195 195 190 187 192 205 211 213 217 220 216 208 202 197 195 194 195 194 194 195 195 196 198 200 202 204 206 208 211 213 215 216 219 222 221 219
244 249 256 261 268 277 285 291 296 300 303 306 309 312 316 319 321 323 326 328 332 336 339 342 346 349 349 352 358 2 1 360 359 359 358 1 4 3 355 342 331 315 236 178 118 67 103 161 166 164 166 173 177 182 193 191 185 187 198 207 209 208 205 202 201 201 201 201 201 201 201 201 203 204 206 209 213 215 216 217 218 218 219 221 222
247 252 259 265 271 278 285 290 293 296 300 303 306 309 313 317 319 321 325 329 331 334 337 341 345 348 350 351 356 2 4 3 2 2 2 2 6 10 9 5 356 334 238 221 219 124 123 162 172 175 183 188 181 170 175 183 183 183 185 189 196 204 207 205 205 205 206 206 207 207 207 209 210 211 212 214 216 216 216 217 217 216 217 219 218
250 255 260 265 271 278 283 287 291 294 298 301 304 307 311 315 318 319 322 327 331 334 337 341 344 348 351 352 354 359 4 5 5 5 5 6 9 12 13 14 13 8 307 256 250 237 215 189 181 188 198 200 190 181 183 186 183 182 181 181 185 191 195 198 202 205 206 206 208 209 211 213 215 214 212 211 211 210 211 213 214 212 211 210 206
249 253 258 263 269 275 280 284 288 292 296 299 301 305 308 312 314 316 320 326 331 333 336 341 345 348 350 352 353 356 1 5 7 8 7 8 11 13 13 15 16 15 10 348 303 259 235 217 198 193 198 200 199 200 202 192 183 184 186 189 190 186 183 188 196 199 198 197 199 202 203 204 205 206 206 205 205 204 203 205 207 205 203 200 199
Height
5714 5713 5713 5712 5713 5713 5713 5714 5714 5714 5715 5715 5715 5715 5716 5716 5716 5716 5717 5717 5717 5718 5718 5718 5718 5719 5719 5719 5719 5719 5719 5720 5720 5720 5720 5721 5721 5721 5722 5723 5723 5723 5724 5724 5724 5724 5725 5725 5726 5726 5726 5727 5728 5728 5729 5729 5729 5730 5730 5730 5731 5731 5731 5732 5733 5737 5740 5740 5740 5742 5743 5742 5744 5746 5749 5751 5752 5754 5756 5758 5760 5761 5761 5762 5762
5711 5710 5709 5709 5709 5709 5709 5710 5710 5710 5711 5711 5711 5711 5711 5711 5712 5712 5712 5712 5712 5712 5713 5713 5713 5713 5713 5713 5714 5714 5714 5713 5713 5713 5714 5714 5714 5715 5716 5716 5717 5718 5718 5718 5718 5718 5718 5719 5719 5719 5719 5720 5721 5721 5722 5722 5723 5723 5724 5724 5725 5725 5725 5725 5726 5728 5732 5734 5734 5734 5735 5735 5736 5739 5741 5743 5744 5745 5747 5751 5754 5755 5755 5756 5757
5706 5706 5706 5705 5705 5705 5706 5706 5706 5706 5706 5707 5707 5707 5707 5707 5707 5707 5707 5707 5707 5707 5707 5707 5707 5707 5708 5708 5708 5708 5707 5707 5707 5707 5707 5707 5708 5708 5708 5709 5710 5710 5711 5711 5711 5711 5712 5712 5712 5712 5713 5713 5714 5714 5714 5715 5715 5716 5717 5717 5718 5719 5719 5718 5719 5720 5724 5727 5727 5727 5728 5728 5729 5732 5734 5736 5736 5737 5740 5744 5747 5749 5750 5751 5752
5701 5701 5702 5701 5701 5701 5701 5701 5702 5702 5702 5702 5702 5702 5702 5702 5703 5702 5702 5702 5702 5702 5702 5702 5702 5702 5702 5702 5702 5701 5701 5701 5700 5701 5701 5701 5701 5701 5701 5701 5702 5702 5703 5703 5704 5704 5704 5705 5705 5705 5705 5706 5706 5706 5706 5707 5708 5708 5709 5710 5710 5712 5713 5712 5712 5713 5716 5720 5721 5721 5721 5721 5722 5724 5726 5728 5729 5731 5733 5737 5740 5742 5743 5745 5746
5696 5696 5697 5697 5697 5696 5697 5697 5697 5696 5696 5697 5697 5697 5697 5697 5697 5697 5697 5697 5697 5696 5696 5696 5696 5696 5696 5696 5695 5695 5694 5694 5694 5694 5694 5694 5694 5695 5694 5694 5694 5694 5695 5695 5696 5696 5696 5697 5697 5697 5697 5698 5698 5698 5698 5699 5700 5700 5702 5702 5703 5704 5705 5706 5706 5707 5708 5711 5714 5715 5714 5715 5715 5717 5719 5720 5721 5723 5726 5730 5733 5735 5736 5738 5739
5691 5691 5691 5692 5692 5692 5691 5692 5692 5691 5691 5691 5691 5692 5692 5692 5692 5692 5692 5692 5691 5691 5691 5691 5691 5691 5690 5690 5689 5689 5688 5688 5687 5687 5687 5687 5688 5688 5688 5688 5687 5687 5687 5687 5687 5688 5688 5689 5689 5689 5689 5690 5690 5690 5690 5691 5692 5692 5693 5694 5695 5696 5697 5698 5699 5700 5701 5703 5706 5707 5708 5708 5709 5710 5711 5712 5714 5716 5720 5723 5725 5727 5730 5731 5733
5685 5686 5686 5687 5687 5687 5686 5686 5686 5686 5686 5686 5686 5686 5686 5686 5686 5686 5686 5686 5686 5686 5685 5685 5685 5685 5685 5684 5684 5683 5683 5682 5682 5681 5681 5681 5681 5681 5681 5681 5680 5680 5679 5679 5679 5679 5680 5680 5681 5681 5681 5681 5681 5681 5682 5683 5684 5684 5685 5686 5687 5688 5689 5690 5691 5692 5694 5695 5698 5700 5701 5701 5702 5703 5704 5705 5707 5709 5712 5714 5717 5721 5724 5725 5727
5680 5681 5681 5681 5682 5682 5681 5680 5680 5680 5680 5680 5681 5680 5680 5680 5681 5681 5681 5681 5681 5680 5680 5680 5680 5679 5679 5679 5678 5678 5677 5677 5676 5676 5676 5676 5675 5675 5674 5674 5673 5673 5672 5671 5671 5671 5671 5671 5672 5672 5672 5673 5673 5673 5673 5674 5675 5676 5677 5677 5678 5680 5681 5683 5683 5684 5686 5687 5690 5692 5694 5695 5695 5696 5697 5698 5700 5703 5705 5707 5711 5714 5717 5718 5720
5675 5675 5675 5676 5677 5676 5675 5674 5674 5674 5675 5675 5675 5675 5675 5675 5675 5675 5675 5676 5675 5675 5675 5675 5674 5674 5674 5673 5673 5672 5672 5671 5671 5671 5670 5670 5669 5669 5668 5667 5667 5666 5665 5664 5663 5662 5662 5662 5663 5663 5664 5664 5664 5665 5665 5665 5666 5668 5669 5669 5670 5671 5673 5674 5676 5677 5678 5679 5682 5684 5686 5688 5689 5689 5690 5692 5694 5696 5698 5700 5702 5707 5710 5712 5714
5668 5668 5669 5669 5670 5670 5668 5668 5668 5669 5669 5669 5669 5669 5669 5669 5669 5669 5670 5670 5670 5670 5670 5669 5669 5669 5668 5668 5668 5667 5666 5666 5665 5665 5664 5663 5663 5663 5662 5661 5660 5659 5658 5657 5656 5655 5654 5653 5654 5654 5654 5655 5655 5656 5656 5657 5657 5659 5660 5661 5662 5663 5665 5666 5668 5669 5670 5672 5674 5676 5678 5680 5681 5682 5683 5685 5687 5689 5691 5693 5695 5699 5703 5706 5707
5660 5661 5662 5662 5663 5664 5663 5662 5662 5662 5662 5662 5663 5663 5663 5663 5663 5663 5663 5664 5664 5665 5664 5664 5664 5664 5663 5663 5662 5661 5661 5660 5659 5659 5658 5657 5656 5656 5655 5654 5653 5652 5651 5650 5649 5648 5646 5645 5644 5644 5645 5645 5646 5646 5647 5648 5648 5649 5651 5652 5653 5655 5656 5658 5660 5661 5662 5664 5666 5668 5670 5673 5674 5675 5677 5678 5680 5682 5685 5686 5689 5692 5695 5698 5701
5653 5653 5655 5655 5656 5658 5657 5656 5656 5656 5655 5655 5656 5656 5657 5657 5657 5657 5657 5658 5658 5659 5658 5658 5658 5658 5657 5657 5656 5656 5655 5654 5653 5652 5651 5650 5649 5648 5648 5647 5645 5644 5643 5642 5641 5640 5639 5638 5636 5636 5635 5635 5636 5636 5637 5638 5639 5640 5641 5643 5644 5646 5647 5649 5651 5652 5653 5655 5658 5660 5662 5665 5667 5668 5670 5671 5673 5676 5678 5680 5682 5684 5687 5690 5693
5647 5647 5647 5648 5649 5650 5650 5649 5649 5649 5648 5648 5649 5650 5650 5651 5651 5651 5651 5652 5652 5652 5652 5652 5652 5652 5652 5651 5650 5650 5649 5647 5646 5645 5645 5644 5642 5641 5640 5638 5637 5636 5635 5633 5632 5631 5630 5629 5628 5628 5627 5626 5626 5626 5627 5628 5629 5630 5631 5633 5635 5637 5638 5640 5642 5644 5645 5647 5649 5653 5654 5656 5660 5662 5662 5663 5665 5668 5671 5672 5674 5677 5680 5683 5686
5639 5639 5640 5641 5642 5643 5643 5642 5641 5641 5641 5642 5643 5643 5644 5645 5645 5645 5646 5646 5646 5646 5646 5646 5646 5646 5645 5645 5644 5643 5642 5640 5639 5638 5637 5636 5635 5633 5632 5630 5629 5627 5626 5624 5623 5622 5621 5620 5620 5619 5618 5617 5617 5616 5617 5617 5618 5619 5621 5623 5625 5627 5629 5630 5632 5634 5636 5638 5641 5644 5646 5648 5651 5654 5655 5656 5658 5661 5663 5666 5668 5671 5673 5675 5677
5630 5631 5633 5635 5636 5637 5638 5636 5634 5634 5635 5635 5637 5637 5638 5639 5639 5639 5640 5640 5640 5640 5640 5640 5640 5639 5639 5638 5637 5636 5635 5633 5632 5631 5629 5628 5626 5625 5623 5621 5620 5618 5616 5615 5613 5612 5611 5610 5610 5610 5609 5609 5608 5607 5607 5607 5608 5609 5611 5613 5616 5618 5619 5621 5622 5623 5626 5629 5632 5635 5638 5640 5643 5646 5648 5649 5651 5653 5656 5658 5661 5663 5665 5667 5669
5620 5623 5626 5628 5629 5631 5632 5631 5629 5628 5628 5630 5631 5632 5632 5633 5634 5634 5634 5634 5634 5634 5634 5634 5633 5633 5632 5631 5630 5629 5628 5626 5625 5623 5621 5619 5618 5616 5614 5612 5610 5609 5607 5605 5603 5602 5601 5600 5600 5600 5600 5600 5599 5598 5597 5596 5597 5599 5601 5603 5605 5608 5610 5612 5612 5613 5616 5619 5623 5627 5630 5632 5634 5637 5640 5641 5644 5646 5647 5649 5652 5655 5658 5660 5663
5613 5615 5617 5619 5621 5623 5624 5624 5623 5622 5622 5624 5626 5627 5627 5628 5628 5628 5628 5628 5628 5628 5628 5627 5626 5626 5625 5624 5623 5622 5621 5619 5617 5615 5613 5610 5609 5607 5605 5602 5601 5599 5597 5595 5594 5593 5591 5591 5590 5590 5590 5590 5590 5589 5587 5587 5587 5589 5591 5593 5595 5598 5601 5602 5602 5604 5606 5609 5613 5617 5621 5624 5626 5628 5631 5633 5636 5638 5638 5640 5645 5649 5652 5654 5659
5606 5607 5609 5611 5613 5614 5615 5616 5615 5615 5616 5618 5619 5621 5622 5623 5622 5622 5622 5622 5622 5622 5621 5621 5620 5619 5619 5617 5616 5615 5613 5611 5608 5606 5604 5601 5599 5597 5594 5592 5591 5589 5588 5586 5585 5584 5583 5582 5581 5580 5580 5580 5579 5578 5578 5577 5577 5579 5580 5582 5584 5588 5591 5592 5592 5595 5597 5598 5603 5607 5611 5614 5617 5619 5622 5625 5628 5630 5631 5634 5639 5643 5645 5648 5652
5597 5599 5601 5603 5606 5607 5608 5608 5608 5609 5610 5611 5613 5615 5616 5616 5616 5616 5616 5616 5616 5616 5615 5614 5614 5613 5611 5610 5608 5607 5605 5603 5600 5597 5594 5591 5589 5586 5584 5583 5581 5580 5578 5577 5577 5575 5574 5573 5571 5570 5569 5568 5567 5567 5567 5566 5567 5569 5570 5571 5574 5578 5580 5581 5584 5586 5587 5589 5593 5596 5600 5604 5608 5611 5614 5617 5620 5622 5624 5628 5632 5635 5639 5643 5645
5589 5592 5594 5596 5598 5599 5599 5600 5601 5603 5605 5607 5608 5609 5610 5610 5610 5610 5610 5610 5610 5609 5608 5608 5607 5606 5604 5602 5600 5598 5597 5595 5591 5588 5585 5582 5579 5577 5574 5573 5572 5570 5569 5568 5567 5566 5564 5563 5561 5560 5558 5557 5556 5556 5556 5556 5557 5559 5560 5562 5565 5568 5569 5571 5574 5576 5577 5580 5583 5585 5589 5594 5598 5603 5607 5609 5611 5614 5618 5622 5625 5628 5633 5637 5639
5582 5585 5587 5588 5589 5590 5592 5594 5596 5598 5600 5602 5603 5603 5603 5604 5604 5605 5604 5604 5603 5603 5602 5601 5600 5598 5596 5594 5592 5590 5587 5585 5583 5579 5576 5573 5570 5567 5565 5563 5561 5560 5560 5559 5557 5556 5554 5552 5551 5550 5548 5547 5546 5545 5546 5546 5546 5548 5551 5552 5555 5557 5558 5560 5563 5565 5567 5571 5574 5576 5580 5585 5590 5594 5598 5602 5604 5607 5611 5615 5618 5622 5626 5630 5633
5576 5579 5580 5581 5583 5584 5586 5588 5591 5593 5595 5596 5597 5597 5598 5598 5598 5599 5598 5598 5597 5596 5595 5594 5593 5591 5589 5586 5584 5581 5579 5576 5573 5570 5567 5564 5561 5558 5556 5554 5551 5549 5549 5548 5547 5546 5544 5543 5542 5540 5539 5537 5536 5535 5535 5536 5536 5538 5540 5542 5543 5545 5547 5550 5552 5554 5557 5561 5564 5567 5571 5576 5582 5587 5590 5594 5598 5600 5604 5608 5611 5615 5619 5623 5626
5571 5573 5574 5576 5578 5580 5582 5584 5586 5588 5590 5591 5591 5592 5592 5592 5593 5593 5592 5592 5591 5590 5589 5587 5585 5583 5582 5579 5576 5573 5570 5567 5564 5561 5558 5556 5553 5550 5547 5544 5541 5539 5537 5537 5537 5536 5535 5533 5532 5531 5529 5527 5526 5525 5525 5525 5526 5528 5530 5531 5532 5534 5535 5538 5541 5544 5547 5550 5555 5560 5565 5569 5574 5579 5583 5586 5590 5593 5597 5601 5604 5607 5612 5615 5618
5567 5568 5571 5573 5575 5577 5579 5581 5582 5583 5585 5586 5586 5587 5587 5587 5587 5587 5587 5586 5585 5583 5581 5580 5578 5576 5574 5572 5569 5565 5562 5559 5556 5552 5550 5547 5544 5541 5537 5534 5532 5529 5527 5527 5526 5525 5524 5523 5522 5520 5518 5517 5516 5516 5515 5516 5516 5518 5519 5520 5521 5523 5525 5528 5531 5534 5537 5541 5546 5553 5558 5562 5567 5571 5575 5578 5581 5584 5588 5592 5596 5600 5604 5607 5610
5563 5565 5567 5570 5572 5574 5576 5577 5578 5579 5580 5581 5582 5582 5582 5582 5582 5581 5580 5579 5578 5576 5575 5573 5571 5569 5567 5565 5562 5559 5555 5552 5548 5545 5542 5539 5536 5532 5528 5525 5522 5520 5518 5517 5516 5515 5514 5513 5512 5510 5509 5508 5508 5507 5507 5507 5507 5508 5509 5510 5511 5513 5516 5519 5522 5524 5528 5533 5539 5545 5550 5555 5559 5563 5567 5569 5571 5575 5580 5585 5589 5593 5597 5600 5604
5559 5562 5564 5567 5568 5570 5571 5573 5574 5575 5576 5576 5576 5576 5577 5577 5576 5575 5574 5573 5571 5570 5568 5566 5564 5562 5560 5557 5555 5552 5549 5545 5542 5538 5534 5530 5527 5523 5519 5517 5514 5511 5509 5508 5507 5506 5505 5504 5503 5502 5501 5501 5500 5500 5500 5500 5500 5500 5501 5501 5503 5505 5507 5510 5512 5516 5520 5526 5531 5536 5542 5547 5550 5554 5557 5560 5563 5568 5573 5578 5583 5586 5590 5594 5598
5556 5559 5562 5564 5565 5566 5567 5569 5570 5571 5571 5571 5571 5572 5572 5572 5571 5570 5569 5567 5566 5564 5562 5560 5558 5555 5553 5551 5548 5546 5542 5538 5535 5531 5526 5522 5518 5515 5511 5508 5506 5504 5501 5499 5498 5497 5497 5496 5495 5495 5494 5493 5493 5493 5493 5493 5493 5493 5494 5494 5495 5497 5499 5501 5503 5506 5511 5516 5521 5526 5532 5537 5541 5545 5549 5553 5557 5562 5567 5572 5576 5580 5584 5588 5592
5554 5557 5559 5561 5562 5563 5564 5565 5566 5567 5567 5567 5567 5567 5568 5568 5566 5565 5563 5562 5560 5558 5555 5553 5551 5549 5547 5545 5542 5540 5536 5531 5527 5522 5518 5514 5510 5507 5504 5501 5499 5496 5494 5492 5491 5490 5490 5489 5489 5488 5487 5487 5486 5486 5486 5486 5487 5487 5487 5487 5488 5489 5491 5493 5495 5498 5503 5507 5512 5517 5522 5527 5532 5538 5542 5546 5551 5556 5560 5565 5569 5574 5578 5582 5586
5552 5554 5556 5558 5559 5560 5561 5561 5562 5563 5563 5563 5563 5564 5564 5563 5562 5560 5558 5556 5554 5552 5550 5548 5545 5543 5541 5538 5535 5532 5529 5525 5520 5515 5510 5507 5503 5500 5497 5494 5492 5489 5487 5485 5484 5484 5483 5483 5483 5482 5480 5480 5479 5479 5479 5479 5480 5480 5480 5481 5481 5482 5483 5485 5488 5491 5495 5498 5503 5508 5513 5518 5524 5530 5535 5539 5544 5549 5554 5558 5563 5567 5571 5575 5579
5549 5551 5553 5554 5555 5556 5557 5558 5559 5559 5559 5559 5560 5561 5560 5559 5557 5555 5553 5551 5549 5547 5544 5542 5540 5537 5535 5532 5528 5525 5521 5517 5512 5508 5504 5500 5496 5493 5490 5487 5485 5483 5481 5480 5479 5478 5477 5476 5476 5475 5474 5473 5473 5472 5472 5472 5472 5473 5474 5474 5474 5475 5476 5477 5480 5483 5486 5490 5495 5500 5505 5510 5516 5522 5528 5533 5538 5543 5548 5552 5556 5561 5565 5569 5573
5547 5549 5550 5551 5552 5553 5554 5555 5556 5556 5556 5557 5558 5558 5556 5554 5552 5550 5548 5546 5544 5541 5539 5537 5534 5531 5529 5526 5522 5518 5513 5508 5504 5501 5497 5493 5490 5486 5484 5482 5480 5478 5477 5475 5473 5472 5471 5470 5469 5469 5468 5468 5467 5466 5465 5465 5465 5466 5467 5467 5467 5468 5469 5471 5474 5477 5480 5483 5488 5493 5498 5504 5510 5515 5521 5527 5533 5538 5542 5546 5551 5555 5560 5564 5568
5545 5546 5547 5548 5549 5550 5551 5552 5553 5553 5553 5554 5555 5554 5552 5550 5548 5546 5544 5541 5539 5537 5534 5531 5529 5526 5523 5519 5516 5511 5507 5502 5498 5494 5491 5487 5484 5481 5479 5477 5476 5474 5472 5470 5468 5466 5465 5465 5464 5463 5463 5462 5461 5460 5459 5459 5459 5460 5460 5461 5462 5463 5464 5466 5468 5471 5474 5478 5483 5488 5493 5499 5504 5509 5515 5521 5527 5532 5537 5542 5546 5551 5555 5559 5563
5542 5543 5544 5546 5547 5548 5549 5550 5551 5551 5552 5552 5552 5550 5548 5546 5544 5542 5539 5537 5534 5531 5529 5526 5524 5521 5517 5513 5509 5504 5499 5496 5492 5489 5485 5481 5478 5476 5474 5473 5472 5469 5467 5465 5463 5461 5460 5460 5459 5458 5457 5456 5455 5454 5454 5454 5454 5455 5456 5457 5458 5459 5461 5462 5464 5467 5470 5474 5478 5483 5488 5493 5498 5504 5510 5516 5522 5528 5534 5539 5543 5547 5551 5555 5559
5540 5541 5542 5543 5545 5546 5547 5548 5549 5550 5550 5549 5548 5546 5544 5542 5540 5538 5535 5532 5529 5526 5524 5521 5519 5516 5512 5508 5503 5498 5493 5490 5487 5484 5480 5476 5473 5471 5470 5469 5467 5465 5463 5461 5459 5457 5456 5455 5454 5453 5452 5451 5450 5450 5450 5450 5451 5452 5453 5454 5455 5456 5458 5459 5462 5464 5467 5471 5475 5479 5484 5489 5494 5500 5506 5512 5519 5525 5530 5535 5539 5543 5546 5550 5554
5538 5539 5540 5542 5543 5545 5546 5547 5547 5547 5546 5545 5543 5542 5541 5539 5536 5534 5531 5528 5525 5522 5520 5517 5514 5511 5507 5503 5498 5493 5488 5485 5482 5479 5475 5472 5469 5468 5466 5465 5464 5462 5460 5458 5456 5454 5452 5451 5450 5449 5448 5447 5447 5447 5448 5449 5450 5451 5451 5452 5453 5454 5455 5457 5460 5462 5465 5468 5472 5476 5481 5486 5492 5497 5503 5510 5516 5522 5528 5531 5535 5538 5542 5546 5549
5537 5538 5539 5541 5542 5544 5545 5545 5545 5544 5542 5541 5540 5539 5537 5535 5532 5530 5527 5524 5522 5519 5516 5514 5510 5507 5503 5498 5493 5488 5484 5481 5478 5475 5472 5468 5466 5465 5463 5462 5460 5458 5457 5455 5453 5452 5451 5450 5449 5448 5447 5447 5446 5446 5447 5448 5449 5450 5450 5450 5451 5452 5454 5456 5458 5461 5464 5467 5471 5475 5480 5485 5490 5496 5502 5508 5514 5520 5525 5529 5532 5535 5539 5542 5545
5536 5537 5538 5540 5541 5542 5543 5542 5542 5540 5539 5538 5537 5535 5533 5531 5529 5527 5524 5522 5519 5516 5513 5511 5508 5504 5499 5495 5490 5486 5481 5477 5474 5471 5468 5465 5463 5462 5461 5459 5457 5456 5454 5453 5452 5451 5450 5450 5449 5448 5447 5447 5446 5446 5447 5448 5449 5449 5449 5450 5451 5452 5454 5455 5457 5460 5463 5467 5471 5475 5479 5484 5489 5495 5500 5506 5512 5518 5522 5525 5528 5532 5535 5539 5542
5534 5536 5537 5538 5539 5540 5540 5540 5539 5538 5537 5535 5533 5531 5530 5528 5527 5525 5522 5519 5517 5514 5511 5508 5505 5501 5497 5493 5488 5483 5479 5475 5471 5467 5465 5463 5461 5460 5459 5457 5455 5454 5453 5452 5451 5451 5450 5449 5449 5448 5447 5447 5446 5447 5448 5449 5449 5450 5450 5450 5451 5452 5454 5456 5458 5460 5463 5466 5470 5474 5479 5484 5489 5494 5500 5506 5511 5516 5519 5522 5525 5529 5532 5535 5538
5533 5534 5535 5536 5537 5538 5538 5537 5536 5535 5534 5532 5530 5529 5528 5526 5524 5522 5520 5517 5514 5511 5508 5505 5502 5498 5494 5490 5485 5481 5477 5473 5470 5466 5463 5462 5460 5459 5457 5455 5454 5453 5452 5451 5451 5450 5449 5449 5449 5448 5448 5447 5447 5447 5448 5449 5450 5450 5450 5450 5451 5452 5454 5456 5459 5461 5464 5467 5471 5475 5479 5485 5490 5495 5501 5506 5510 5513 5516 5519 5523 5526 5530 5532 5535
5531 5532 5533 5534 5535 5535 5535 5535 5533 5532 5531 5530 5528 5527 5526 5524 5522 5520 5517 5515 5512 5509 5506 5503 5499 5496 5492 5487 5483 5478 5474 5471 5468 5465 5462 5460 5458 5457 5455 5454 5452 5451 5451 5450 5450 5450 5449 5449 5449 5448 5448 5448 5448 5448 5448 5449 5450 5451 5451 5451 5452 5453 5454 5456 5459 5462 5465 5468 5472 5476 5481 5486 5491 5496 5500 5504 5507 5510 5514 5517 5521 5524 5527 5529 5532
5529 5530 5531 5532 5532 5533 5532 5532 5531 5530 5529 5528 5527 5525 5523 5522 5520 5518 5515 5513 5510 5507 5504 5501 5497 5493 5489 5485 5480 5476 5472 5468 5465 5463 5460 5459 5457 5455 5454 5452 5451 5450 5450 5449 5449 5449 5449 5449 5449 5449 5449 5449 5448 5448 5448 5450 5451 5451 5452 5453 5454 5455 5456 5457 5460 5463 5466 5469 5473 5478 5483 5487 5491 5494 5498 5502 5505 5509 5512 5516 5519 5522 5525 5527 5528
5527 5528 5529 5529 5529 5529 5529 5529 5528 5528 5527 5526 5525 5523 5521 5519 5518 5516 5513 5511 5508 5506 5503 5499 5496 5492 5487 5483 5479 5474 5470 5466 5464 5461 5459 5457 5455 5453 5452 5451 5450 5449 5448 5448 5448 5448 5448 5448 5448 5448 5449 5449 5449 5449 5449 5450 5451 5452 5453 5454 5456 5457 5458 5459 5461 5465 5468 5470 5474 5478 5482 5486 5490 5493 5497 5501 5504 5508 5511 5514 5517 5520 5522 5524 5525
5525 5526 5526 5526 5526 5527 5527 5527 5526 5526 5526 5525 5524 5522 5520 5517 5515 5513 5511 5509 5507 5504 5501 5498 5495 5491 5486 5482 5477 5473 5469 5466 5463 5460 5457 5455 5453 5452 5451 5450 5449 5447 5446 5446 5446 5447 5447 5448 5448 5448 5449 5449 5449 5450 5450 5451 5452 5453 5454 5455 5457 5459 5460 5461 5463 5466 5470 5473 5475 5478 5481 5485 5488 5492 5495 5499 5503 5506 5509 5512 5515 5517 5519 5521 5522
5522 5523 5523 5523 5524 5524 5524 5524 5525 5524 5524 5523 5522 5520 5518 5516 5513 5512 5510 5507 5505 5503 5500 5497 5494 5490 5486 5481 5477 5473 5470 5466 5463 5460 5457 5454 5452 5451 5450 5449 5448 5447 5445 5445 5445 5445 5446 5447 5448 5448 5449 5449 5450 5450 5451 5451 5452 5454 5455 5456 5458 5459 5461 5463 5465 5468 5471 5474 5477 5479 5482 5484 5487 5491 5494 5498 5501 5504 5507 5510 5513 5515 5517 5518 5520
5519 5520 5520 5521 5521 5522 5522 5522 5523 5522 5522 5522 5520 5519 5517 5514 5512 5511 5509 5506 5504 5501 5499 5496 5493 5490 5486 5482 5477 5473 5470 5467 5463 5460 5457 5454 5452 5450 5450 5449 5448 5446 5445 5445 5444 5444 5445 5446 5447 5448 5449 5449 5450 5450 5451 5452 5453 5454 5455 5457 5458 5460 5462 5464 5466 5469 5472 5475 5477 5480 5482 5484 5487 5490 5493 5496 5499 5502 5505 5508 5511 5513 5515 5516 5518
5517 5518 5518 5519 5519 5520 5520 5520 5520 5520 5520 5519 5518 5517 5515 5513 5512 5510 5508 5505 5503 5500 5498 5495 5493 5490 5486 5482 5478 5473 5470 5467 5464 5461 5458 5454 5452 5450 5449 5448 5447 5447 5446 5445 5444 5444 5444 5445 5446 5446 5448 5449 5450 5451 5451 5452 5453 5454 5455 5456 5458 5460 5462 5464 5467 5469 5471 5474 5477 5479 5481 5483 5486 5489 5492 5495 5498 5501 5504 5506 5508 5510 5512 5514 5516
5515 5516 5516 5517 5517 5518 5518 5518 5518 5518 5517 5517 5516 5515 5513 5512 5510 5509 5507 5505 5502 5500 5497 5495 5492 5489 5486 5482 5478 5474 5470 5467 5464 5461 5458 5455 5453 5450 5448 5447 5447 5446 5446 5445 5444 5444 5444 5444 5445 5446 5447 5448 5449 5450 5451 5452 5453 5454 5455 5456 5458 5460 5462 5464 5466 5468 5470 5473 5475 5478 5480 5482 5485 5488 5491 5494 5496 5499 5501 5504 5506 5508 5510 5512 5515
5513 5513 5514 5514 5515 5515 5515 5515 5515 5515 5515 5514 5513 5512 5511 5510 5509 5507 5506 5503 5501 5499 5497 5494 5492 5489 5486 5483 5479 5476 5472 5468 5465 5462 5459 5456 5454 5451 5449 5447 5446 5446 5446 5445 5445 5444 5444 5444 5445 5446 5447 5448 5449 5449 5450 5451 5452 5453 5455 5456 5458 5459 5461 5463 5465 5467 5470 5472 5474 5477 5479 5482 5484 5486 5489 5492 5494 5497 5499 5501 5503 5506 5508 5510 5513
5510 5511 5511 5512 5512 5513 5513 5513 5512 5512 5512 5512 5511 5510 5509 5508 5507 5505 5504 5502 5500 5498 5496 5494 5491 5489 5486 5483 5480 5476 5473 5470 5466 5463 5460 5458 5455 5452 5449 5447 5446 5445 5445 5445 5445 5445 5444 5445 5445 5446 5447 5448 5448 5449 5450 5451 5452 5453 5455 5456 5457 5458 5460 5462 5464 5466 5469 5471 5474 5476 5479 5481 5483 5485 5488 5490 5492 5494 5497 5499 5501 5504 5506 5508 5511
5508 5508 5509 5509 5510 5510 5510 5510 5510 5510 5509 5509 5509 5508 5507 5506 5505 5504 5502 5501 5499 5497 5495 5493 5491 5489 5486 5483 5480 5477 5474 5471 5468 5464 5461 5458 5456 5453 5451 5448 5447 5445 5445 5444 5444 5444 5444 5444 5445 5445 5446 5447 5448 5449 5450 5450 5452 5453 5454 5456 5457 5458 5459 5461 5463 5465 5468 5470 5473 5475 5477 5479 5481 5484 5486 5488 5490 5492 5494 5497 5499 5501 5504 5506 5509
5505 5506 5506 5506 5507 5507 5507 5507 5507 5507 5507 5506 5506 5506 5505 5504 5503 5502 5501 5499 5498 5496 5494 5493 5491 5489 5486 5483 5480 5477 5475 5472 5469 5466 5462 5459 5457 5454 5452 5449 5448 5446 5445 5444 5443 5442 5442 5443 5443 5444 5445 5446 5447 5448 5449 5450 5452 5453 5454 5455 5456 5457 5459 5461 5462 5464 5466 5469 5472 5474 5476 5478 5480 5482 5484 5486 5488 5490 5493 5496 5498 5500 5502 5505 5508